Date,TemperatureHighF,TemperatureAvgF,TemperatureLowF,DewpointHighF,DewpointAvgF,DewpointLowF,HumidityHigh,HumidityAvg,HumidityLow,PressureMaxIn,PressureMinIn,WindSpeedMaxMPH,WindSpeedAvgMPH,GustSpeedMaxMPH,PrecipitationSumIn
2013-9-1,88,75,68,77,70,67,100,87,56,29.92,29.83,11,2,17,0.19
2013-9-2,84,74,65,75,70,64,99,89,72,29.97,29.86,7,2,13,0.00
2013-9-3,88,73,64,73,67,62,99,83,58,30.05,29.89,13,1,18,1.13
2013-9-4,85,69,57,69,63,56,99,83,52,30.16,30.05,0,0,0,0.00
2013-9-5,82,68,56,67,62,55,99,81,52,30.20,30.14,0,0,0,0.00
2013-9-6,85,70,56,69,62,55,98,79,48,30.22,30.10,6,1,12,0.00
2013-9-7,86,70,56,71,64,55,99,82,54,30.16,30.02,8,1,13,0.00
2013-9-8,88,73,63,73,67,62,98,82,53,30.05,29.97,5,0,8,0.00
2013-9-9,90,75,62,76,68,61,99,81,53,30.13,30.03,4,0,9,0.00
2013-9-10,94,77,64,75,69,62,98,78,49,30.25,30.13,0,0,0,0.00
2013-9-11,91,77,68,73,70,66,98,80,54,30.25,30.11,5,0,12,0.00
2013-9-12,86,72,66,76,69,65,99,89,68,30.12,29.92,13,1,18,0.10
2013-9-13,78,68,56,68,59,51,99,75,46,30.02,29.92,10,2,15,0.00
2013-9-14,76,61,48,59,51,45,94,73,44,30.14,30.02,7,1,13,0.00
2013-9-15,82,65,48,68,57,47,97,79,50,30.23,30.13,3,0,9,0.00
2013-9-16,84,67,56,68,60,54,98,82,50,30.22,30.15,9,1,14,0.00
2013-9-17,82,69,60,65,60,55,92,75,54,30.26,30.16,6,1,10,0.00
2013-9-18,71,65,59,64,60,56,93,85,70,30.26,30.18,1,0,5,0.01
2013-9-19,83,69,59,70,64,57,98,84,61,30.23,30.09,7,1,12,0.00
2013-9-20,85,71,58,69,64,57,99,81,54,30.11,29.91,7,1,12,0.00
2013-9-21,67,65,59,66,63,57,98,95,90,29.92,29.77,14,1,18,1.56
2013-9-22,74,62,52,61,55,51,99,80,51,29.98,29.86,6,1,12,0.01
2013-9-23,80,62,47,65,55,46,98,81,52,30.08,29.98,7,1,13,0.00
2013-9-24,82,67,53,66,60,52,98,81,51,30.10,29.92,5,1,11,0.00
2013-9-25,70,66,63,66,64,61,98,93,81,29.93,29.86,2,0,6,0.25
2013-9-26,79,67,57,65,61,55,99,83,53,30.07,29.91,4,1,11,0.00
2013-9-27,82,63,49,64,56,48,99,80,42,30.20,30.07,4,0,9,0.00
2013-9-28,78,62,49,64,56,48,98,83,54,30.28,30.14,4,0,8,0.00
2013-9-29,73,61,51,62,57,50,98,86,65,30.20,30.06,7,1,12,0.00
2013-9-30,78,64,52,63,58,51,98,82,53,30.13,30.03,6,1,9,0.00